Flag for Denmark Weather past 2 weeks in Copenhagen, Denmark

Now
66 °F

Sunny.


Feels Like: 66 °F
Forecast: 54 / 63 °F
Wind: 12 mph from Northwest

Location: Koebenhavn-Kastrup Airport

Current Time: Jul 30, 2015 at 6:49:48 PM

Latest Report: Jul 30, 2015 at 6:20 PM


Visibility: 10 mi

Pressure: 29.65 "Hg

Humidity: 56%

Dew point: 50 °F

Location of CopenhagenLocation

Historic Weather in Copenhagen — Graph

°F

Copenhagen temperature yesterday

Maximum temperature yesterday: 64 °F (at 4:50 PM)
Minimum temperature yesterday: 55 °F (at 9:50 PM)
Average temperature yesterday: 59 °F

Past Weeks' High & Low Weather Summary

 TemperatureHumidityPressure
High75 °F (Jul 21, 1:20 PM)100% (Jul 19, 11:50 PM)30.07 "Hg (Jul 19, 11:50 PM)
Low50 °F (Jul 16, 3:50 AM)33% (Jul 16, 3:20 PM)29.39 "Hg (Jul 28, 5:20 AM)
Average61 °F73%29.77 "Hg
* Reported Jul 15 5:20 PM — Jul 30 5:20 PM, Copenhagen, Weather by CustomWeather, © 2015

Note: Actual official high and low records may vary slightly from our data, if they occured in-between our weather recording intervals... More about our weather records

Advertising

Copenhagen weather history for previous 24 hours

 ConditionsComfort  
Time TempWeatherWind HumidityBarometerVisibility
5:20 PM
Thu, Jul 30
70 °FPassing clouds.10 mph50%29.62 "HgN/A
4:50 PM70 °FScattered clouds.14 mph43%29.62 "HgN/A
4:20 PM68 °FPassing clouds.13 mph49%29.62 "HgN/A
3:50 PM66 °FScattered clouds.10 mph60%29.62 "HgN/A
3:20 PM66 °FScattered clouds.12 mph60%29.62 "HgN/A
2:50 PM66 °FBroken clouds.12 mph56%29.62 "HgN/A
2:20 PM68 °FBroken clouds.13 mph53%29.62 "HgN/A
1:50 PM66 °FBroken clouds.10 mph68%29.59 "HgN/A
1:20 PM64 °FBroken clouds.7 mph64%29.59 "HgN/A
12:50 PM66 °FBroken clouds.10 mph60%29.59 "HgN/A
11:50 AM64 °FBroken clouds.6 mph64%29.56 "HgN/A
11:20 AM63 °FBroken clouds.7 mph68%29.56 "HgN/A
10:50 AM63 °FScattered clouds.2 mph68%29.56 "HgN/A
10:20 AM61 °FScattered clouds.1 mph72%29.56 "HgN/A
9:50 AM63 °FScattered clouds.1 mph73%29.53 "HgN/A
9:20 AM59 °FScattered clouds.3 mph72%29.53 "HgN/A
8:50 AM59 °FScattered clouds.5 mph72%29.53 "HgN/A
8:20 AM59 °FPassing clouds.1 mph77%29.53 "HgN/A
7:50 AM57 °FPassing clouds.2 mph82%29.50 "HgN/A
7:20 AM55 °FPassing clouds.3 mph88%29.50 "HgN/A
6:50 AM54 °FPassing clouds.3 mph88%29.50 "HgN/A
6:20 AM50 °FPassing clouds.2 mph94%29.50 "HgN/A
5:50 AM50 °FPassing clouds.2 mph94%29.50 "HgN/A
5:20 AM52 °FPassing clouds.No wind88%29.50 "HgN/A
4:50 AM52 °FPassing clouds.1 mph88%29.50 "HgN/A
4:20 AM52 °FPassing clouds.No wind88%29.50 "HgN/A
3:50 AM52 °FPassing clouds.2 mph88%29.50 "HgN/A
3:20 AM50 °FPassing clouds.1 mph94%29.50 "HgN/A
2:50 AM52 °FPassing clouds.1 mph88%29.50 "HgN/A
2:20 AM50 °FPassing clouds.3 mph94%29.50 "HgN/A
1:50 AM52 °FPassing clouds.5 mph88%29.50 "HgN/A
1:20 AM52 °FPassing clouds.7 mph94%29.50 "HgN/A
12:50 AM55 °FPassing clouds.8 mph82%29.50 "HgN/A
12:20 AM55 °FPassing clouds.10 mph82%29.50 "HgN/A
11:50 PM
Wed, Jul 29
55 °FClear.9 mph82%29.50 "Hg10 mi
11:20 PM55 °FClear.9 mph82%29.50 "Hg10 mi
10:50 PM55 °FClear.12 mph82%29.50 "Hg10 mi
10:20 PM55 °FSunny.10 mph82%29.53 "Hg10 mi
9:50 PM55 °FSunny.9 mph82%29.53 "Hg10 mi
9:20 PM57 °FSunny.13 mph72%29.53 "Hg10 mi
8:50 PM59 °FScattered clouds.13 mph68%29.53 "HgN/A
8:20 PM59 °FScattered clouds.10 mph68%29.53 "HgN/A
7:50 PM59 °FScattered clouds.8 mph72%29.53 "HgN/A
7:20 PM61 °FScattered clouds.18 mph63%29.53 "HgN/A
6:50 PM61 °FScattered clouds.16 mph63%29.50 "HgN/A
6:20 PM63 °FScattered clouds.17 mph64%29.50 "HgN/A
Weather by CustomWeather, © 2015

See weather overviewHow to use our weather pages